Date String (YYYY-MM-DD hh:mm:ss) UTC,Instrument flags,Ambient pressure (hPa),Sample flow (lpm),Bypass flow (lpm),Sample temperature (°C),Ambient temperature (°C),ASC tube jacket temperature (°C),LED temperature (°C),Box temperature (°C),Sample RH (%),Span deviation,Mass concentration (μg/m³),Mass concentration (μg/m³),Mass concentration (μg/m³)
DateTimeUTC,F1_M11,P_M11,Q1_M11,Q2_M11,T1_M11,T2_M11,T3_M11,T4_M11,T5_M11,U1_M11,ZSPAN_M11,X2_M11,X0_M11,X1_M11
2023-04-06 23:00:00,,0833.2,5.00,0.00,22.7,21.3,00.0,31.0,24.3,06.9,0000.0,0004.00,0010.94,0003.28
2023-04-06 23:01:00,,0833.2,5.00,0.00,22.7,21.3,00.0,31.0,24.3,07.0,0000.0,0004.01,0010.48,0003.28
2023-04-06 23:02:00,,0833.2,5.00,0.00,22.7,21.3,00.0,31.0,24.3,07.1,0000.0,0004.00,0010.40,0003.28
2023-04-06 23:03:00,,0833.2,5.01,0.00,22.7,21.3,00.0,31.0,24.3,06.8,0000.0,0003.98,0010.35,0003.27
2023-04-06 23:04:00,,0833.2,5.01,0.00,22.7,21.2,00.0,31.0,24.3,06.6,0000.0,0004.02,0010.55,0003.29
2023-04-06 23:05:00,,0833.2,4.99,0.00,22.7,21.2,00.0,31.0,24.3,07.0,0000.0,0004.04,0011.06,0003.29
2023-04-06 23:06:00,,0833.2,4.99,0.00,22.7,21.3,00.0,31.0,24.3,06.7,0000.0,0004.01,0011.10,0003.29
2023-04-06 23:07:00,,0833.2,5.01,0.00,22.8,21.3,00.0,31.0,24.3,06.7,0000.0,0004.02,0010.87,0003.29
2023-04-06 23:08:00,,0833.2,5.01,0.00,22.8,21.3,00.0,31.1,24.3,06.6,0000.0,0004.03,0010.33,0003.29
2023-04-06 23:09:00,,0833.2,4.99,0.00,22.8,21.3,00.0,31.1,24.3,06.6,0000.0,0004.03,0010.28,0003.29
2023-04-06 23:10:00,,0833.2,4.99,0.00,22.8,21.3,00.0,31.1,24.3,06.7,0000.0,0004.02,0010.37,0003.27
2023-04-06 23:11:00,,0833.2,5.00,0.00,22.8,21.4,00.0,31.1,24.3,07.0,0000.0,0004.02,0010.66,0003.27
2023-04-06 23:12:00,,0833.2,5.00,0.00,22.8,21.4,00.0,31.1,24.3,07.0,0000.0,0004.00,0011.62,0003.27
2023-04-06 23:13:00,,0833.2,5.01,0.00,22.8,21.4,00.0,31.1,24.4,06.8,0000.0,0004.00,0011.96,0003.27
2023-04-06 23:14:00,,0833.2,5.00,0.00,22.8,21.4,00.0,31.1,24.4,07.2,0000.0,0004.02,0011.88,0003.28
2023-04-06 23:15:00,,0833.2,4.99,0.00,22.8,21.4,00.0,31.1,24.4,07.3,0000.0,0003.97,0012.00,0003.26
2023-04-06 23:16:00,,0833.2,5.00,0.00,22.8,21.5,00.0,31.1,24.4,06.9,0000.0,0003.96,0011.63,0003.25
2023-04-06 23:17:00,,0833.2,5.00,0.00,22.8,21.5,00.0,31.1,24.4,07.0,0000.0,0003.98,0011.31,0003.24
2023-04-06 23:18:00,,0833.3,5.00,0.00,22.9,21.4,00.0,31.1,24.4,07.1,0000.0,0003.97,0011.15,0003.24
2023-04-06 23:19:00,,0833.2,5.01,0.00,22.8,21.4,00.0,31.1,24.4,06.8,0000.0,0003.97,0011.18,0003.24
2023-04-06 23:20:00,,0833.2,5.00,0.00,22.9,21.4,00.0,31.1,24.4,06.9,0000.0,0003.99,0012.09,0003.24
2023-04-06 23:21:00,,0833.2,5.01,0.00,22.9,21.4,00.0,31.1,24.4,06.8,0000.0,0004.00,0012.06,0003.24
2023-04-06 23:22:00,,0833.2,4.99,0.00,22.8,21.4,00.0,31.1,24.4,07.0,0000.0,0004.02,0011.89,0003.23
2023-04-06 23:23:00,,0833.2,5.00,0.00,22.9,21.4,00.0,31.2,24.4,06.5,0000.0,0004.02,0011.08,0003.23
2023-04-06 23:24:00,,0833.3,5.00,0.00,22.9,21.4,00.0,31.2,24.4,06.7,0000.0,0004.10,0010.80,0003.25
2023-04-06 23:25:00,,0833.3,5.00,0.00,22.9,21.4,00.0,31.2,24.4,06.7,0000.0,0004.11,0010.58,0003.24
2023-04-06 23:26:00,,0833.4,5.00,0.00,22.9,21.5,00.0,31.2,24.4,06.4,0000.0,0004.14,0010.38,0003.24
2023-04-06 23:27:00,,0833.4,4.99,0.00,22.9,21.5,00.0,31.2,24.4,06.3,0000.0,0004.13,0010.39,0003.25
2023-04-06 23:28:00,,0833.4,4.99,0.00,22.9,21.5,00.0,31.2,24.4,06.6,0000.0,0004.11,0010.75,0003.26
2023-04-06 23:29:00,,0833.4,4.99,0.00,22.9,21.5,00.0,31.2,24.4,06.5,0000.0,0004.14,0010.88,0003.27
2023-04-06 23:30:00,,0833.4,5.01,0.00,22.9,21.5,00.0,31.2,24.4,06.7,0000.0,0004.10,0010.75,0003.27
2023-04-06 23:31:00,,0833.4,5.01,0.00,22.9,21.5,00.0,31.2,24.4,06.6,0000.0,0004.05,0009.87,0003.27
2023-04-06 23:32:00,,0833.4,4.99,0.00,22.9,21.5,00.0,31.2,24.4,06.6,0000.0,0004.07,0010.29,0003.28
2023-04-06 23:33:00,,0833.4,4.99,0.00,22.9,21.5,00.0,31.2,24.4,06.6,0000.0,0004.10,0010.34,0003.29
2023-04-06 23:34:00,,0833.4,5.02,0.00,22.9,21.4,00.0,31.2,24.5,06.5,0000.0,0004.14,0010.55,0003.30
2023-04-06 23:35:00,,0833.4,4.99,0.00,22.9,21.4,00.0,31.2,24.5,06.5,0000.0,0004.09,0011.43,0003.29
2023-04-06 23:36:00,,0833.4,5.00,0.00,22.9,21.4,00.0,31.2,24.5,06.3,0000.0,0004.09,0011.61,0003.30
2023-04-06 23:37:00,,0833.4,5.01,0.00,22.9,21.3,00.0,31.2,24.4,06.4,0000.0,0004.08,0011.29,0003.31
2023-04-06 23:38:00,,0833.4,5.01,0.00,22.9,21.4,00.0,31.2,24.4,06.4,0000.0,0004.11,0010.90,0003.31
2023-04-06 23:39:00,,0833.4,5.00,0.00,22.9,21.4,00.0,31.2,24.4,06.6,0000.0,0004.11,0010.36,0003.30
2023-04-06 23:40:00,,0833.4,5.01,0.00,22.9,21.4,00.0,31.2,24.5,06.4,0000.0,0004.15,0010.62,0003.30
2023-04-06 23:41:00,,0833.4,5.00,0.00,22.9,21.5,00.0,31.2,24.5,06.5,0000.0,0004.20,0011.25,0003.30
2023-04-06 23:42:00,,0833.5,5.00,0.00,22.9,21.5,00.0,31.2,24.5,06.4,0000.0,0004.22,0011.30,0003.30
2023-04-06 23:43:00,,0833.5,5.00,0.00,22.9,21.5,00.0,31.2,24.5,06.5,0000.0,0004.23,0010.81,0003.29
2023-04-06 23:44:00,,0833.6,5.00,0.00,22.9,21.5,00.0,31.2,24.5,06.5,0000.0,0004.17,0010.67,0003.29
2023-04-06 23:45:00,,0833.6,4.99,0.00,22.9,21.6,00.0,31.2,24.5,06.6,0000.0,0004.13,0010.45,0003.29
2023-04-06 23:46:00,,0833.6,5.00,0.00,22.9,21.6,00.0,31.2,24.5,06.5,0000.0,0004.14,0009.84,0003.30
2023-04-06 23:47:00,,0833.6,4.99,0.00,22.9,21.6,00.0,31.2,24.5,06.6,0000.0,0004.13,0009.43,0003.30
2023-04-06 23:48:00,,0833.7,5.00,0.00,23.0,21.6,00.0,31.3,24.5,06.8,0000.0,0004.13,0009.45,0003.30
2023-04-06 23:49:00,,0833.7,5.00,0.00,23.0,21.6,00.0,31.3,24.5,06.9,0000.0,0004.09,0009.44,0003.30
2023-04-06 23:50:00,,0833.7,4.99,0.00,23.0,21.6,00.0,31.3,24.6,06.9,0000.0,0004.08,0009.51,0003.30
2023-04-06 23:51:00,,0833.7,5.01,0.00,23.0,21.6,00.0,31.3,24.6,07.0,0000.0,0004.00,0009.95,0003.30
2023-04-06 23:52:00,,0833.7,5.00,0.00,23.0,21.6,00.0,31.3,24.6,07.0,0000.0,0003.96,0009.52,0003.29
2023-04-06 23:53:00,,0833.7,5.00,0.00,23.0,21.6,00.0,31.3,24.6,06.6,0000.0,0003.98,0009.99,0003.29
2023-04-06 23:54:00,,0833.7,5.00,0.00,23.0,21.7,00.0,31.3,24.6,06.4,0000.0,0003.96,0010.14,0003.29
2023-04-06 23:55:00,,0833.7,5.00,0.00,23.0,21.7,00.0,31.3,24.6,06.5,0000.0,0003.97,0010.16,0003.29
2023-04-06 23:56:00,,0833.7,5.00,0.00,23.1,21.8,00.0,31.3,24.6,06.5,0000.0,0003.96,0010.08,0003.29
2023-04-06 23:57:00,,0833.7,5.00,0.00,23.1,21.8,00.0,31.3,24.7,06.3,0000.0,0003.95,0009.63,0003.28
2023-04-06 23:58:00,,0833.7,4.98,0.00,23.1,21.8,00.0,31.3,24.7,06.5,0000.0,0003.96,0009.57,0003.27
2023-04-06 23:59:00,,0833.7,5.00,0.00,23.1,21.8,00.0,31.4,24.7,06.4,0000.0,0003.96,0009.93,0003.27
